Location: Bittelbronn
(48.4454°N, 8.5870°E)
Time: 16:23:16
(UTC+00:00)

Cosmos 1953 - Pass Details

Date: 14 August 2024
Orbit: 504 x 523 km, 82.5° (Epoch: 18 September)

Event Time Altitude Azimuth Distance (km) Brightness Sun altitude
Exits shadow 02:15:05 - 151° (SSE) 1,907 4.9 -17.4°
Reaches altitude 10° 02:15:34 10° 148° (SSE) 1,734 4.7 -17.4°
Maximum altitude 02:18:48 27° 90° (E) 1,026 4.1 -17.0°
Drops below altitude 10° 02:22:04 10° 32° (NNE) 1,761 6.2 -16.7°
Sets 02:24:26 0° 20° (NNE) 2,659 7.1 -16.4°
